CAPE
2650 2493 2242 2120 2196 2374 2246 2047 2071 1884 1788 1502 1356 1273 1326 1473 1635 1571 1544 1462 988 908 712 628 706 804 1273 1485 1689 1656 2228 1643 1578 1504 1344 1542 2060 3217 3522 3073 3257 3314 3129 2661 2211 2088 1934 1838 1910 2087 1978 1890 1670 1643 1724 1732 1836 1938 1873 1825 1885 1966 1962 1970 2040 1936 1941 1830 1809 1874 1754 1639 1594 1565 1655 1684 1624 1657 1786 1826 1842 1862 1795 1879 1940
2549 2444 2231 1994 1957 2043 2126 2132 2038 1899 1954 1660 1281 1101 1112 1315 1352 1245 1111 1056 1037 949 755 577 640 904 1042 1270 1367 1428 1676 1427 1182 1332 1599 1409 1320 2762 3620 3137 3494 3503 3328 3054 2771 2299 2045 1907 2004 2064 2046 2008 1889 1688 1681 1711 1746 1838 1892 1964 1999 2008 2055 2109 2238 2199 2254 2224 2178 2106 2108 2162 1932 1842 1850 1804 1770 1930 1863 1776 1765 1995 2165 2246 2408
2290 2350 2189 1996 1760 1682 1727 1890 1931 1768 1940 1797 1440 1084 960 1073 1167 1195 1135 1037 970 838 612 490 501 748 996 1011 936 1039 1265 1176 948 1222 1819 1441 1291 2062 3257 2929 3722 3554 3445 3247 3013 2782 2398 2146 2151 2119 2146 2100 2076 1970 1792 1749 1850 1936 2004 2115 2053 2038 2006 2298 2256 2271 2371 2583 2684 2655 2654 2524 2412 2500 2558 2442 2262 2390 2296 2179 2170 2116 2288 2580 2669
2233 2199 2102 1970 1709 1608 1688 1770 1697 1638 1966 1840 1668 1338 1069 913 942 966 984 918 786 764 680 466 522 581 746 960 1002 980 911 1269 980 1064 1980 1440 965 1764 2746 2950 3728 3888 3710 3576 3303 3132 2982 2638 2562 2360 2268 2245 2166 2058 2030 1904 1831 2231 2056 2154 2205 2252 2527 2368 2562 2415 2366 2566 2833 2803 2897 2843 2824 2852 2869 2646 2658 2900 2869 2746 2736 2591 2515 2688 2777
2370 2099 1986 1904 1732 1673 1708 1786 1761 1606 1831 1840 1716 1451 1224 1074 905 760 668 564 661 863 855 697 729 708 721 830 1031 1070 820 940 900 812 1249 1726 1084 940 1286 2618 3243 3841 3734 3783 3753 3442 3277 3192 3123 3099 2558 2551 2404 2296 2213 2122 2083 2478 2286 2155 2471 2543 2733 2807 2847 2696 2559 2736 2950 3072 3100 3124 3013 2891 2899 3006 3056 3113 3150 3027 3051 2948 2932 3027 2792
2606 2249 2004 1952 1795 1740 1774 1820 1832 1613 1546 1667 1666 1541 1308 1136 1038 779 730 551 456 563 740 807 968 1204 1184 968 996 995 910 1129 849 824 849 1342 1486 1863 1906 1876 2430 2572 2939 3518 3656 3801 3785 3648 3432 3398 3295 2920 2858 2594 2399 2302 2377 2571 2550 2368 2742 2724 2810 2997 3005 2946 3065 3080 3144 3213 3091 3032 3163 3111 2911 2887 2922 2944 3000 3003 2914 3004 2936 2871 2782
3112 2591 2156 1987 1903 1870 1972 2027 1922 1672 1449 1404 1365 1451 1308 1126 876 575 429 433 366 290 534 610 868 1278 1655 1661 1672 1205 852 964 998 848 770 942 1345 2070 2588 2378 2236 2033 1899 2090 2964 3473 3662 3876 3692 3663 3582 3464 3183 2859 2672 2576 2585 2525 2761 3030 2998 2964 2928 3028 3152 3212 3155 3050 3042 3105 3109 3084 2994 2973 3096 2936 2848 2869 2954 3068 3008 2973 2895 2841 2807
3189 3163 2391 2146 1925 1836 1826 1761 1676 1498 1326 1111 1023 1072 1084 906 697 495 385 387 399 372 409 591 776 1084 1439 1782 1743 1491 1004 932 966 888 793 828 1000 1636 2588 2955 2768 2471 2416 1498 1454 2341 3137 3577 3744 3697 3602 3533 3519 3158 2906 2873 2786 2987 2734 2932 3265 3380 3254 3205 3209 3158 3073 2954 2859 2844 2905 2951 2957 2850 2793 2833 2858 2786 2759 2831 2906 2938 2917 2882 2839
2985 2983 2641 2126 1847 1524 1520 1424 1361 1320 1236 1051 860 826 877 795 668 542 356 401 362 379 348 444 625 850 1092 1349 1539 2154 1784 1246 1178 1002 947 898 1038 1386 2197 2905 3270 3674 3117 2424 1878 1828 2334 2887 3389 3650 3680 3563 3508 3534 3373 3072 3018 3115 3110 3098 3254 3543 3491 3370 3262 3139 2999 2916 2808 2722 2639 2655 2697 2716 2719 2723 2750 2737 2794 2793 2809 2818 2837 2854 2820
2646 2599 2468 1802 1372 1444 1512 1761 1416 1262 1188 1116 1044 930 816 712 693 572 471 414 418 439 430 292 506 718 900 1153 1388 1568 1994 2461 2261 2398 1474 1009 1023 1192 1722 2442 3033 3230 3163 2997 2676 2574 2531 2672 2950 3177 3440 3540 3492 3428 3501 3537 3398 3179 3243 3360 3450 3584 3604 3527 3377 3230 3175 3122 3016 2844 2694 2556 2477 2486 2607 2678 2702 2620 2614 2684 2718 2774 2790 2792 2792
2670 2536 2415 2291 2001 1936 1552 2077 1648 1355 1210 1114 1058 996 926 896 821 714 603 561 554 563 470 403 365 646 898 1065 1294 1438 1491 1571 2150 1923 1954 1755 1158 1188 1343 1763 2479 2797 2974 2926 2833 2780 2922 3016 2957 2702 2820 3323 3492 3614 3465 3522 3562 3370 3391 3490 3524 3650 3742 3690 3534 3388 3328 3174 3058 2883 2724 2650 2544 2427 2418 2496 2607 2627 2642 2631 2648 2682 2662 2659 2690
2554 2059 2028 2140 2201 2381 2129 2094 1888 1397 1222 1160 1107 1074 1018 914 810 717 689 658 630 598 573 568 428 629 920 1108 1218 1371 1584 1735 1456 1454 1526 2058 2062 1865 1350 1328 1728 2225 2539 2726 2684 2642 2798 3008 3253 3193 3006 3040 3323 3404 3470 3396 3391 3478 3468 3401 3398 3776 3834 3852 3614 3432 3426 3231 2989 2818 2760 2709 2624 2566 2510 2480 2483 2521 2570 2569 2550 2480 2494 2528 2529
2640 2525 1966 2024 2041 1834 2052 2142 2177 1609 1360 1272 1218 1134 997 904 854 767 713 700 688 645 667 669 494 549 726 861 910 1074 1337 1694 1583 1402 1428 1634 1805 1730 1790 1727 1450 1533 1950 2379 2490 2392 2469 2714 2984 3174 3192 3088 3213 3485 3420 3337 3204 3163 3310 3566 3660 3678 3784 3966 3734 3578 3482 3330 3169 2922 2780 2736 2644 2600 2550 2449 2366 2313 2275 2260 2344 2391 2406 2447 2448
2228 2688 2649 2440 2228 1898 1663 1900 2546 2192 1797 1575 1416 1238 1084 988 946 917 841 832 842 824 800 708 564 414 304 308 407 531 763 1102 1228 1216 1358 1404 1408 1337 1383 1499 1671 1672 1548 1694 2100 2158 2128 2255 2588 2841 2888 2845 2728 2766 3119 3370 3368 3166 3072 3196 3460 3682 3707 3930 4098 3890 3724 3576 3392 3088 2838 2685 2558 2456 2386 2342 2315 2238 2134 2060 2036 2064 2152 2273 2336
2248 2388 2694 2370 2212 2184 1940 1720 1780 2266 2441 2141 1907 1462 1226 1094 1025 967 947 934 943 931 892 747 651 535 413 354 294 302 457 1177 1192 1192 1146 1107 1116 1126 1184 1312 1470 1661 1824 1812 1720 1881 2115 2198 2329 2646 2630 2510 2512 2627 2758 3078 3186 3287 3098 2960 3087 3341 3620 3739 4002 4090 4022 3805 3586 3290 2974 2765 2592 2425 2322 2264 2241 2180 2103 2018 1957 1931 1916 1937 2022
2416 2093 2190 2132 2188 2084 2034 1886 1748 1578 1776 2351 2316 1920 1501 1303 1184 1098 1011 1010 918 912 842 867 650 501 400 370 428 422 276 258 522 725 1053 1089 1062 979 965 1122 1260 1376 1550 1740 1879 1920 1870 2055 2252 2534 2788 2750 2724 2770 2808 2832 3258 3814 3758 3368 2996 2878 3225 3613 3751 4006 4053 4104 3862 3533 3194 2916 2716 2551 2415 2310 2255 2218 2126 2009 1920 1866 1844 1845 1931
2110 2126 1942 1863 1987 1912 1842 1998 1988 1972 1869 1959 2379 2408 1966 1632 1448 1305 1211 1054 970 891 864 941 760 551 359 458 436 490 356 252 590 627 721 900 943 973 936 981 1040 1160 1273 1310 1379 1534 1669 1704 1858 2126 2614 2784 2723 2676 2679 2784 2999 3447 3775 4101 3877 3232 2946 3399 3750 3993 4110 4106 4068 4032 3588 3154 2886 2696 2543 2464 2388 2222 2128 2028 1948 1886 1835 1813 1821
1886 1742 2025 1974 1952 2169 2054 1995 2152 2234 2167 2068 1926 2196 2531 2247 1846 1506 1314 1195 1026 983 922 1087 871 699 292 316 341 239 334 440 479 161 702 604 725 877 987 972 955 1003 1082 1147 1159 1229 1372 1480 1564 1691 1836 2444 2806 2752 2652 2652 2872 2834 2917 3130 3746 3651 3369 3063 3279 3832 4142 4221 4197 4124 3938 3617 3219 2890 2680 2651 2586 2428 2268 2096 1983 1906 1852 1812 1776
1628 1501 1754 2059 1972 1933 1901 2051 1921 1899 1992 2012 1977 1810 2277 2478 2283 1929 1565 1327 1202 1089 909 973 950 754 612 467 536 750 1212 887 786 522 403 835 915 823 918 958 1015 990 978 992 1037 1092 1191 1322 1487 1622 1722 1810 2040 2519 2764 2741 2805 2987 3169 3032 2992 3075 3236 3250 3066 3254 3821 4094 4263 4158 4105 3930 3596 3306 3014 2772 2806 2808 2534 2364 2239 2051 1908 1832 1828
1913 1838 1711 1751 1858 1630 1624 1535 1480 1475 1384 1238 1249 1362 1867 2242 2389 2316 1978 1664 1436 1195 1062 1017 942 905 818 737 698 703 708 922 1328 956 562 648 786 1151 1074 988 938 926 947 996 1023 1046 1101 1143 1156 1193 1344 1580 1754 1882 2029 2319 2520 2590 2785 3023 2910 2710 2677 2783 2950 2881 3092 3680 4052 3984 4037 4047 3928 3690 3412 3138 2889 2979 2827 2585 2408 2320 2143 1967 1862
1730 1372 1702 1908 2147 2134 1829 1544 1529 1524 1467 1280 1034 1307 1766 2002 2114 2117 1719 1663 1619 1442 1258 1142 1036 880 755 682 758 744 708 684 913 1063 1108 913 524 593 982 1111 1090 1120 1069 1011 1033 1080 1160 1206 1188 1175 1111 1084 1337 1582 1800 1948 2036 2046 2006 2023 2347 2561 2557 2508 2534 2722 2720 3127 3371 3967 4034 3873 4030 4044 3965 3814 3536 3314 3079 2896 2688 2582 2438 2227 2132
948 1113 837 607 1196 1876 2226 2100 1580 1326 1453 1470 1766 1964 1907 1876 1784 1802 1788 1760 1600 1486 1420 1272 1028 914 774 432 466 710 676 644 722 893 1096 1091 433 316 528 901 931 882 1020 1149 1126 1122 1125 1140 1139 1085 1166 1276 1295 1211 1412 1557 1715 1964 2052 2106 2050 2064 2256 2391 2431 2464 2562 2770 3214 3540 3614 3618 3860 4144 4250 4177 4034 3848 3756 3341 3015 2734 2677 2811 2691
816 902 1179 932 1102 1158 1721 1998 1751 1418 1465 1410 1362 1592 2108 2272 2120 1942 1780 1652 1584 1549 1499 970 880 726 652 544 333 561 546 530 555 748 766 733 594 384 339 530 737 728 638 659 848 1020 1117 1149 1118 1100 1106 1141 1129 1113 1244 1410 1792 1881 2025 2038 2067 2055 2008 2013 2200 2352 2411 2458 2498 2613 3116 3506 3581 3730 4004 4234 4332 4171 3988 3770 3560 3387 3112 3106 3317
267 244 436 454 368 396 532 720 928 1082 1213 1359 1520 1533 1567 1782 1814 1705 1639 1540 1438 1416 1413 1397 1185 855 722 502 391 474 428 390 411 612 818 734 568 550 616 689 764 727 632 500 545 610 654 711 810 841 808 822 926 1063 1178 1316 1480 1770 1901 2028 2040 2048 2065 2057 2046 1972 1952 2088 2245 2250 2184 2414 3038 3304 3556 3874 4145 4336 4368 4313 3978 3816 3783 3709 3573
280 33 126 338 376 350 345 318 306 375 546 840 1194 1340 1339 1452 1367 1327 1374 1394 1480 1336 1294 1119 990 633 568 500 466 525 415 528 424 572 820 835 799 727 726 772 775 750 761 688 754 784 748 674 620 636 666 710 760 823 910 1056 1184 1341 1592 1690 1797 1894 1973 2006 1994 1941 1867 1759 1666 1524 1379 1661 1920 2125 2317 2659 3263 3805 4164 4395 4299 4206 4168 4014 3614
785 750 550 520 680 713 801 752 656 703 871 730 780 912 922 798 947 1061 1024 1074 850 1088 1028 901 666 625 661 515 430 483 416 388 538 677 795 959 944 820 824 832 808 832 899 989 994 947 974 951 879 824 809 778 737 696 678 716 877 1081 1199 1302 1420 1541 1645 1712 1769 1789 1776 1767 1706 1644 1345 1278 1467 1558 1550 1666 1916 2573 3294 3774 3995 4104 4019 3902 3822
622 820 854 937 758 580 585 534 479 566 696 909 1161 1020 796 613 698 879 692 521 576 508 574 585 880 837 714 503 446 401 265 305 465 710 814 854 929 880 926 933 905 982 1042 1077 1184 1215 1136 1133 1123 1032 1002 957 894 843 783 719 884 1131 1270 1292 1315 1376 1446 1500 1513 1528 1568 1528 1194 1040 874 1163 1254 1175 1114 1122 1192 1390 2066 2802 3198 3430 3608 3626 3543
693 945 1100 1056 698 611 663 536 385 356 662 590 478 616 482 537 848 944 819 740 861 780 708 757 862 825 654 452 323 246 227 226 385 648 810 872 878 926 971 940 394 767 1043 1176 1218 1235 1272 1250 1214 1266 1227 1116 1029 984 974 962 1014 1152 1438 1469 1462 1474 1478 1487 1474 1434 1390 1300 1077 913 1102 1109 1095 1079 1128 1160 1147 1275 1442 1706 2168 2623 2944 3175 3281
784 994 1066 891 675 688 728 576 488 434 405 834 828 578 344 684 683 652 701 882 1003 949 1062 1106 947 773 598 367 205 172 206 205 177 319 552 800 904 948 1044 1060 892 753 899 950 1067 1121 1140 1219 1324 1414 1444 1446 1388 1286 1212 1258 1288 1308 1331 1377 1453 1486 1481 1483 1491 1471 1442 1378 1236 980 590 586 740 887 956 918 849 776 958 1097 1269 1675 2170 2563 2836
883 876 948 976 924 820 764 763 894 821 564 560 733 632 423 440 632 638 626 540 413 498 714 1117 933 707 354 136 44 0 100 178 175 181 383 602 814 991 1162 1264 1261 1063 780 856 844 808 928 964 1084 1184 1111 1238 1380 1414 1393 1394 1400 1433 1462 1510 1664 1762 1796 1805 1746 1667 1626 1458 1201 1027 972 916 812 634 358 569 976 964 925 780 796 1037 1444 1923 2293
916 799 688 795 942 805 533 550 630 728 594 482 543 522 474 368 313 557 584 654 629 578 622 573 630 496 210 101 73 64 62 108 184 173 209 291 572 836 1067 1264 1450 1401 1031 823 1088 938 714 846 877 917 929 970 980 1023 1116 1236 1358 1445 1526 1627 1757 1936 2110 2206 2196 2058 1884 1778 1684 1577 1476 1310 931 641 698 1206 1294 1218 1027 927 820 764 884 1262 1638
654 632 661 628 517 522 646 628 596 703 550 408 539 681 630 561 594 703 945 976 1029 845 685 488 572 506 223 133 83 35 32 71 132 174 206 147 263 517 810 1051 1265 1410 1389 1302 1354 995 935 878 930 1012 1089 1165 1539 1603 1500 1485 1630 1800 1910 1983 2100 2180 2177 2109 2003 1889 1774 1744 1703 1601 1462 1271 1048 954 1102 1410 1558 1418 1304 1246 1124 1112 1048 787 929
546 538 468 435 455 540 606 695 761 693 620 536 436 517 564 566 534 566 794 950 772 708 466 737 711 456 292 137 56 24 30 36 0 44 94 94 64 240 470 775 1080 1320 1448 1322 1095 1022 920 1174 1137 1050 893 1290 1770 1968 1898 1830 1838 1902 1947 1935 1859 1775 1658 1624 1595 1543 1402 1167 962 993 1002 912 1094 1347 1455 1515 1490 1432 1570 1506 1232 1166 1166 1070 867
471 470 499 575 656 636 594 513 607 588 491 537 594 425 468 462 445 459 471 587 634 587 417 439 342 545 329 150 84 45 39 32 4 0 2 27 28 77 270 520 787 1078 1224 1183 1072 1022 842 908 1142 1096 1089 1430 1361 1523 1565 1456 1366 1362 1388 1354 1251 1229 1404 1498 1520 1486 1342 1412 1722 1820 1632 1510 1484 1522 1474 1432 1436 1337 1284 1436 1430 1241 1210 1176 928
626 659 698 689 630 548 482 424 442 370 332 370 433 478 533 555 521 500 482 356 280 268 170 126 284 333 460 350 249 164 76 48 26 3 0 2 19 37 85 246 536 836 1121 1143 1072 801 468 730 1089 1202 1131 1186 1117 1051 1171 1218 1107 966 883 869 870 957 1288 1525 1690 1820 1955 1972 1862 1696 1550 1534 1578 1580 1493 1380 1259 1167 1155 1338 1326 1082 1001 1168 1234
654 694 758 716 629 551 440 465 361 371 448 378 397 366 421 444 354 308 316 259 146 119 164 183 286 365 468 433 373 292 202 113 56 27 16 14 28 19 24 56 253 456 736 823 705 458 550 740 861 715 887 1020 1014 792 795 829 871 907 944 1004 1132 1325 1529 1768 1981 2054 1988 1826 1622 1436 1288 1203 1274 1382 1498 1434 1253 1264 1378 1488 1412 1248 1165 1181 1236
752 806 790 645 556 439 414 469 486 359 202 215 246 404 415 379 442 386 405 432 346 228 158 180 221 268 270 308 350 389 383 298 167 68 18 19 17 14 13 37 130 253 352 446 530 602 539 663 625 390 465 697 826 776 765 893 822 803 842 922 1088 1410 1647 1799 1937 1999 1876 1628 1322 1037 1068 1382 1472 1438 1484 1575 1398 1459 1514 1508 1420 1317 1229 1207 1291
1042 871 732 672 571 459 472 579 401 341 382 176 201 379 378 306 326 293 244 278 304 268 197 150 110 154 211 236 266 228 242 304 254 264 234 127 160 185 182 135 122 173 273 266 161 352 398 435 429 482 464 444 576 706 770 807 523 446 505 624 712 772 816 1048 1377 1695 1712 1433 1089 966 1030 1160 1199 1230 1374 1516 1410 1408 1397 1470 1461 1340 1243 1233 1289
1227 1051 834 725 540 455 454 492 532 335 356 254 214 242 332 280 246 198 195 196 197 204 235 220 158 104 120 133 136 124 96 82 77 74 188 305 289 237 210 209 217 238 201 209 162 265 346 296 318 386 438 492 561 672 807 632 374 363 325 268 230 397 636 820 943 1025 1226 1314 1157 908 902 908 1040 1200 1267 1284 1294 1525 1768 1933 1944 1702 1293 1100 1042
1270 1106 814 670 430 285 290 384 508 476 354 318 273 212 243 337 365 367 344 267 230 223 241 243 199 137 119 149 184 224 234 122 45 67 163 340 372 367 320 317 324 328 192 70 132 268 214 258 316 475 641 757 768 550 470 316 0 0 164 166 185 150 334 555 717 891 1012 1136 1210 1035 908 875 952 963 1114 1390 1531 1623 1733 1826 1812 1686 1577 1336 1396
1218 1115 828 703 384 224 190 269 316 392 461 425 486 486 374 280 256 283 255 204 157 116 151 213 204 150 118 130 147 196 367 291 240 230 260 346 476 430 289 290 312 235 118 114 126 160 141 220 298 494 724 686 274 315 10 3 0 190 220 165 145 196 321 373 574 642 824 1064 1078 950 977 926 914 998 942 620 1185 1679 1824 1858 1805 1670 1570 1538 1656
1110 975 847 738 434 276 208 192 225 297 392 323 229 217 175 214 218 239 172 76 113 105 139 163 193 154 110 137 178 226 253 263 239 251 282 220 230 208 240 273 279 225 72 99 86 91 158 260 426 587 599 290 220 216 11 22 0 265 183 319 441 507 538 559 572 588 555 804 960 1060 1074 930 837 841 789 428 587 894 1175 1398 1534 1673 1716 1694 1768
766 754 823 744 569 279 201 148 168 230 290 281 223 186 66 35 118 191 186 122 157 164 229 229 159 131 128 106 112 162 102 81 126 208 304 300 257 247 254 246 121 62 50 55 54 120 388 467 481 492 287 146 184 128 2 24 256 216 180 154 215 334 546 630 658 700 742 923 1067 990 795 670 730 640 498 399 215 315 563 894 1202 1489 1528 1559 1728
542 694 696 646 570 249 184 163 183 233 252 94 24 2 5 1 54 224 314 255 188 91 206 385 258 184 150 136 41 42 66 110 116 179 234 243 205 177 120 88 53 50 52 63 140 370 513 507 438 366 219 199 195 148 58 246 287 232 190 161 147 153 295 570 714 677 834 834 808 702 708 594 544 532 510 486 352 127 0 185 526 976 1078 1087 1385
568 486 459 504 505 222 157 222 176 132 124 0 4 30 53 45 62 196 373 262 157 28 102 305 413 290 154 58 36 12 10 32 52 118 93 142 129 122 112 152 152 124 120 142 175 220 220 228 246 282 256 248 202 210 240 276 209 165 148 154 177 186 208 272 489 755 1268 923 612 551 513 500 674 702 517 520 347 55 0 0 0 250 689 949 1114
238 192 303 446 444 234 186 247 189 131 188 5 0 6 28 34 74 165 356 218 277 79 14 119 324 307 70 46 12 20 22 35 50 74 64 55 104 73 81 85 70 18 88 120 152 175 223 198 212 280 308 236 192 168 176 228 235 244 261 351 422 395 314 496 660 950 700 958 610 506 550 552 736 566 659 589 438 287 97 96 0 0 0 103 324
181 224 410 488 422 292 221 273 292 151 176 8 6 10 9 32 90 146 300 406 224 28 0 3 125 250 68 38 28 4 10 46 44 37 1 1 2 3 0 0 0 88 174 212 190 141 201 206 265 335 178 84 111 122 44 183 314 671 863 886 771 522 422 969 1405 1059 816 708 844 704 761 654 820 723 693 760 576 417 399 390 310 0 0 0 0
347 454 618 316 402 247 172 300 297 127 90 0 3 5 9 23 109 147 243 427 258 23 0 6 8 26 42 17 12 10 33 31 5 10 11 25 19 8 3 1 24 76 132 158 132 137 178 261 337 112 52 35 112 25 192 364 382 636 833 868 784 458 847 1004 872 1140 1200 958 893 864 626 690 748 716 636 797 613 509 441 95 0 0 0 0 0
363 630 606 250 368 203 178 233 210 251 116 24 0 0 1 14 102 140 160 380 211 96 64 32 32 30 41 19 15 13 21 27 26 38 28 22 15 26 28 63 128 163 154 161 208 317 242 258 232 197 194 215 163 28 291 717 634 522 623 522 752 846 714 718 688 1041 1140 1433 1355 1101 890 613 638 618 768 746 463 553 486 196 0 0 0 0 72
229 534 536 290 350 192 210 157 189 271 214 70 0 0 0 8 36 114 206 342 120 109 44 38 31 36 65 31 40 56 70 40 35 48 53 71 58 48 82 134 152 240 288 337 285 350 436 447 398 403 356 317 246 178 225 496 713 539 667 893 1224 1102 796 655 705 946 1033 1226 1515 1276 924 590 506 822 921 549 768 642 518 308 0 0 0 0 26
190 454 505 412 365 168 178 214 256 248 278 123 25 0 0 5 11 87 265 309 180 110 149 137 50 37 62 73 102 120 156 168 142 118 95 114 91 114 188 151 184 224 243 356 386 408 480 552 561 544 365 296 274 315 307 370 613 758 670 600 1262 1400 978 960 1124 754 479 695 1255 1283 1011 844 503 924 696 493 567 444 420 369 93 0 0 0 13
Wind_Speed
16 14 14 11 10 9 10 11 12 13 13 14 17 17 14 12 13 16 19 22 23 23 24 24 24 23 21 20 20 19 21 21 25 28 26 22 20 17 17 15 11 10 8 7 5 5 5 7 8 8 7 7 8 9 11 12 14 15 16 16 15 16 16 16 16 16 16 15 15 15 15 15 14 13 13 13 13 14 14 14 14 14 13 12 12
19 18 17 12 11 11 11 11 12 13 14 14 15 17 17 14 11 12 16 19 21 21 23 24 25 25 23 22 20 19 21 20 23 28 27 25 22 19 16 15 12 11 9 8 5 4 4 6 7 8 8 7 7 8 9 11 12 14 15 15 15 15 15 16 16 16 16 16 15 15 15 14 14 14 14 14 14 14 15 14 13 14 13 13 12
23 23 21 17 15 13 12 11 11 13 14 13 14 16 17 17 14 11 12 14 16 19 21 21 24 25 24 23 21 20 20 20 22 28 28 26 26 23 17 15 13 11 10 8 6 4 4 5 7 8 8 8 8 8 9 10 11 12 13 14 14 14 15 14 16 16 16 15 13 13 13 13 14 14 14 14 15 15 15 14 13 14 14 13 12
24 23 23 22 20 19 16 15 12 13 14 14 14 14 15 16 14 11 10 11 13 16 18 19 21 22 25 24 24 21 21 21 21 26 28 27 27 23 23 19 14 12 10 8 6 4 4 5 5 7 8 8 8 9 9 9 10 10 11 13 13 13 12 13 14 16 16 14 13 13 13 14 14 14 15 15 15 15 15 15 14 15 14 14 13
23 23 23 24 26 26 23 20 18 16 15 15 15 15 15 14 14 13 12 11 12 13 16 17 18 20 24 23 24 22 21 22 20 25 27 28 28 26 24 22 20 14 10 9 6 4 4 3 4 4 6 7 8 8 9 9 9 8 10 11 11 11 11 11 13 15 15 12 12 12 13 13 14 14 14 15 15 15 15 16 16 16 16 15 15
22 21 23 26 28 28 28 26 24 22 20 18 17 16 17 15 15 15 13 13 12 13 14 14 16 18 20 22 23 23 23 21 20 22 27 27 28 28 25 23 21 19 16 9 7 5 4 3 3 4 5 6 6 7 8 9 9 8 10 11 10 9 10 10 12 12 12 11 11 12 13 13 13 14 14 15 15 15 15 16 17 16 16 16 16
20 21 23 25 26 25 26 26 27 26 24 21 20 18 18 17 17 16 13 12 12 13 13 13 16 17 17 22 24 24 24 21 20 23 27 28 29 28 25 23 22 20 19 17 11 6 5 4 3 3 5 6 6 7 7 8 9 10 10 10 10 10 10 10 10 10 11 11 11 12 12 12 13 14 14 15 16 16 16 17 17 17 16 17 17
22 22 24 25 23 23 25 27 26 26 24 23 23 22 20 20 18 19 16 12 13 11 14 13 15 17 19 21 25 26 25 24 21 21 25 28 28 28 25 22 22 21 20 19 17 13 6 5 4 3 4 5 5 7 7 8 9 9 11 11 10 10 9 10 10 10 11 11 12 12 12 13 14 14 14 15 16 16 16 17 18 18 17 18 18
23 24 29 29 24 22 26 29 26 24 24 24 24 24 24 22 21 19 18 15 15 13 14 14 14 16 19 20 22 25 26 25 23 20 23 27 28 27 26 23 22 20 19 19 18 17 11 7 5 4 3 4 5 5 6 7 10 10 11 11 11 10 10 9 9 10 10 11 12 12 12 13 14 14 15 15 16 16 17 18 18 18 18 19 19
25 30 31 27 24 24 25 29 27 23 22 23 22 24 25 25 23 21 19 18 17 16 14 14 15 15 18 20 20 23 24 26 26 21 20 24 27 27 26 24 23 21 20 19 18 17 16 11 6 5 4 4 4 5 6 6 8 10 10 10 10 10 10 10 9 9 10 11 11 12 12 12 13 14 15 15 16 16 17 17 18 18 19 19 19
24 30 30 27 25 25 26 27 28 25 23 23 23 23 24 24 25 23 20 18 18 19 17 16 15 15 15 18 20 21 24 27 31 25 23 25 26 27 28 26 25 23 21 20 19 18 16 17 15 13 10 4 4 5 5 6 7 8 9 10 10 9 10 10 11 11 11 10 11 11 11 12 12 13 14 14 15 16 16 17 18 18 18 18 18
25 29 29 27 28 29 28 26 26 25 23 25 24 24 25 26 25 26 23 19 18 19 20 17 14 13 13 16 20 21 23 26 29 28 24 24 27 31 29 28 27 24 22 22 20 19 18 17 17 16 14 9 4 4 4 6 6 6 8 8 8 8 9 9 10 11 11 11 11 11 11 12 12 12 13 14 14 15 16 16 17 17 17 17 17
25 28 29 28 29 29 28 27 27 26 25 25 26 26 27 28 28 27 25 22 19 21 21 20 15 13 15 16 19 22 24 27 28 26 22 24 27 30 31 31 28 26 25 24 22 20 19 18 18 18 16 16 11 4 3 3 4 5 5 6 6 7 7 7 8 9 10 11 11 11 11 11 12 12 13 13 14 14 15 15 15 15 15 16 16
27 27 28 28 28 27 27 28 28 27 24 25 28 27 27 28 29 28 27 25 21 23 24 25 16 14 16 18 18 20 23 26 27 26 24 25 27 29 29 29 28 28 28 26 23 21 20 20 20 19 18 17 16 15 11 7 5 3 3 3 4 5 6 6 6 7 8 9 10 10 11 11 11 11 12 12 13 13 14 14 14 14 14 15 15
34 32 31 29 27 26 26 27 26 24 24 25 27 27 27 28 29 30 30 28 24 25 25 24 21 23 21 19 17 22 27 29 28 26 26 27 28 27 27 26 26 28 28 26 25 23 23 22 21 20 20 19 18 17 15 13 11 6 3 3 3 3 3 4 5 6 7 8 8 8 9 9 10 10 10 11 11 12 12 13 13 13 13 13 14
36 34 33 31 28 27 27 27 24 23 24 26 28 27 28 28 29 29 32 31 29 25 25 24 25 28 20 16 19 21 20 23 28 32 31 28 26 25 27 26 25 26 27 25 26 26 25 23 21 21 20 20 19 18 17 16 12 8 6 5 4 3 3 2 3 4 5 6 7 7 7 8 8 8 9 9 10 11 12 12 12 13 13 13 13
36 35 34 31 29 29 29 27 25 25 28 28 27 27 28 28 30 32 32 31 30 29 27 25 22 22 24 24 22 19 16 25 33 32 33 29 24 24 25 24 24 25 25 25 25 26 26 24 23 23 21 21 20 19 18 17 17 15 12 8 6 5 4 4 4 3 3 4 5 6 6 6 6 6 7 7 8 9 10 11 12 12 13 13 13
34 33 31 29 28 29 30 29 29 29 30 29 27 26 27 29 32 33 31 29 30 32 28 25 22 20 18 18 23 21 22 24 29 27 34 27 27 25 24 23 25 25 26 25 25 26 26 25 25 24 23 22 21 21 20 19 18 18 17 16 10 8 7 6 5 5 4 4 4 4 5 6 6 6 6 6 7 7 8 9 11 11 12 12 12
35 33 29 26 27 28 29 29 30 31 30 31 28 24 25 28 33 33 30 30 35 30 25 26 26 22 18 15 16 20 24 27 21 28 30 32 29 27 26 26 27 27 25 24 25 26 27 26 25 25 25 25 23 23 22 21 20 17 17 15 13 11 9 8 7 7 6 6 5 4 4 5 6 6 6 6 6 7 7 8 9 9 10 11 11
43 37 32 29 26 24 26 28 31 33 32 30 27 24 25 31 33 31 32 32 32 29 25 28 27 25 20 17 14 12 15 19 22 23 26 29 32 34 32 31 31 27 25 24 24 25 26 26 25 25 26 25 26 25 24 23 22 20 19 13 12 12 11 10 9 8 8 7 6 5 4 5 5 6 7 7 7 7 7 7 8 8 9 9 10
35 39 37 34 29 27 27 27 28 31 31 28 26 25 26 32 34 34 33 32 33 30 31 28 28 26 24 18 17 16 13 13 18 23 22 26 27 31 33 36 33 29 29 28 28 28 28 27 26 26 26 26 26 27 27 27 26 25 22 16 14 13 12 11 11 10 9 10 8 7 5 5 5 5 6 6 7 7 8 8 8 9 9 9 10
30 37 35 35 34 31 29 28 27 29 31 29 27 26 26 29 32 32 32 33 34 34 27 28 31 31 28 28 22 21 18 15 14 20 23 24 24 33 36 34 31 30 32 30 28 28 28 28 28 28 28 28 28 29 29 28 28 28 25 18 16 15 14 13 12 12 10 10 10 9 8 6 5 6 6 6 7 7 9 9 9 10 10 9 10
29 31 35 37 36 33 30 29 28 29 30 30 28 28 27 28 32 34 33 32 34 32 30 31 34 34 32 32 27 25 21 17 16 20 19 20 24 27 33 36 34 33 35 34 32 30 29 29 29 29 30 30 31 31 31 30 29 26 22 21 19 17 17 16 14 13 12 12 11 10 9 9 7 7 7 7 7 8 9 9 9 10 11 11 12
33 30 29 33 34 33 33 31 28 28 28 29 30 30 29 31 33 35 34 33 35 34 32 32 34 35 34 33 30 27 24 21 21 21 18 16 19 22 29 37 36 33 37 39 36 33 32 31 31 32 33 33 33 33 33 33 31 24 26 23 21 20 20 19 18 17 15 15 14 13 12 11 10 10 9 9 9 9 9 11 10 11 13 14 14
30 nan 33 33 33 32 32 32 31 29 28 29 33 36 33 34 39 38 33 33 36 36 33 30 33 36 36 36 34 33 28 26 26 24 19 18 19 20 25 32 28 33 35 36 35 36 33 34 35 36 35 35 35 36 35 35 34 30 26 28 23 23 21 21 22 21 20 18 16 16 16 15 13 12 12 12 12 11 10 11 11 12 15 15 14
34 32 33 36 35 34 33 32 31 28 29 37 36 35 33 30 32 32 27 29 32 36 34 30 32 33 41 41 37 33 28 28 27 25 21 19 19 20 24 28 27 27 35 35 34 34 36 37 37 37 36 35 35 36 36 34 34 29 27 30 29 26 25 24 24 25 24 24 23 24 21 17 16 15 14 15 15 14 13 13 13 13 14 15 15
32 33 39 42 38 33 36 34 30 28 31 34 33 35 35 33 31 30 30 29 30 33 32 32 34 35 39 42 40 36 32 31 28 25 23 20 19 21 24 22 24 26 27 30 32 28 30 40 36 35 34 34 34 34 33 33 30 27 28 31 32 28 28 27 27 27 28 27 27 24 19 19 20 19 17 17 17 18 18 17 17 16 16 16 16
33 34 38 41 39 35 38 33 29 29 30 33 34 38 37 32 32 35 31 32 35 31 32 33 34 37 38 42 43 38 34 33 32 28 26 24 21 22 24 23 22 22 27 26 27 27 32 33 36 33 32 32 32 32 29 28 30 27 26 31 32 32 29 28 28 28 28 29 29 29 28 26 25 22 21 20 19 19 20 20 20 19 19 19 19
34 36 34 34 34 33 29 30 30 30 31 32 32 35 37 37 35 34 32 27 31 34 34 35 37 39 40 41 43 41 39 38 35 30 29 28 24 22 23 22 22 22 24 26 25 27 34 31 31 34 31 30 30 30 29 29 27 26 29 30 31 32 31 27 27 29 30 30 30 30 31 29 26 25 22 21 21 20 20 21 22 22 22 22 22
36 35 35 33 33 31 29 30 30 29 29 31 31 35 36 36 37 34 31 30 31 31 31 32 36 39 40 43 nan nan 42 42 39 33 30 28 25 22 22 23 26 23 22 24 26 32 33 34 31 32 35 31 30 30 30 28 25 25 29 30 30 31 28 26 26 27 29 30 30 30 27 25 25 24 22 20 21 21 22 22 22 23 23 23 24
33 34 33 32 32 34 32 28 28 28 30 32 32 32 35 33 32 33 32 30 32 31 30 31 34 37 38 40 nan nan nan 42 41 38 34 29 25 22 21 22 24 25 23 26 28 33 34 31 30 31 32 32 32 30 31 30 27 27 29 30 29 27 25 28 28 30 30 28 27 26 25 24 24 24 22 20 20 22 23 23 23 23 23 23 24
32 33 33 32 32 32 32 32 28 28 30 32 32 33 36 34 34 34 31 29 30 30 28 29 33 34 35 36 nan nan nan nan 45 40 33 27 25 23 22 22 22 25 27 30 31 28 34 33 31 31 31 31 33 32 30 30 29 27 30 30 29 27 29 30 28 26 25 24 21 20 20 21 22 22 20 20 21 22 23 22 22 22 22 23 24
31 31 32 31 31 30 29 28 28 27 29 29 31 33 35 34 33 33 31 29 27 27 26 26 28 32 33 34 nan nan nan nan nan nan nan nan nan 24 24 23 22 30 34 29 26 25 31 33 31 30 31 33 33 32 30 29 28 28 29 30 31 31 30 29 27 23 21 21 20 18 18 18 18 17 17 17 19 21 21 22 23 23 22 23 24
30 29 29 29 30 29 28 27 26 26 25 25 26 29 31 31 30 33 33 31 27 25 25 30 27 32 34 34 nan nan nan nan nan nan nan nan nan nan 25 24 24 27 32 31 26 29 26 31 30 32 32 31 29 33 30 29 28 28 27 29 31 32 30 29 28 26 22 20 20 19 18 17 16 16 16 17 18 19 20 22 22 22 21 22 24
28 29 28 28 29 28 28 27 24 23 22 22 23 26 27 28 28 28 30 31 28 25 26 27 31 32 34 35 31 28 nan nan nan nan nan nan nan nan nan 29 27 29 30 28 30 28 25 26 29 29 27 28 26 27 29 28 28 28 28 29 30 31 31 29 28 28 26 23 22 20 18 18 16 16 16 17 18 19 20 20 20 22 21 21 22
26 27 29 28 28 26 25 24 23 20 20 20 21 25 26 25 23 24 26 30 32 28 26 30 33 35 33 34 32 29 27 24 nan nan nan nan nan nan nan nan 31 28 31 32 31 32 33 30 26 24 28 26 24 26 27 28 27 27 27 29 31 30 30 29 28 29 29 27 25 24 23 23 21 20 20 20 20 20 20 20 21 22 23 22 22
23 25 26 25 24 24 22 21 21 20 21 23 21 21 25 25 25 25 27 29 30 28 26 29 34 36 34 31 31 34 34 29 26 nan nan nan nan nan nan nan 35 38 37 35 35 32 30 27 25 25 28 25 24 24 24 23 25 26 27 28 30 30 30 30 30 30 30 30 29 28 28 26 24 23 22 22 21 22 23 23 23 23 23 22 24
19 21 21 21 20 20 20 19 20 17 19 21 21 23 24 26 26 25 26 28 27 26 25 27 32 37 37 33 32 36 35 30 26 26 26 23 24 28 31 35 39 40 36 36 36 34 30 26 24 24 25 22 24 21 20 19 18 20 24 26 28 29 29 29 29 30 32 34 34 33 31 28 26 23 24 24 24 24 25 25 24 23 23 24 24
18 18 17 19 20 20 19 20 20 19 18 19 19 19 23 25 24 23 25 26 25 25 24 26 30 35 36 33 32 32 nan nan nan nan 28 28 29 30 30 32 36 36 36 35 35 34 30 27 26 25 23 23 22 17 19 21 18 19 20 24 24 26 28 29 29 31 33 34 34 33 32 30 28 28 25 24 24 23 23 23 23 23 23 24 23
17 19 16 17 20 19 18 19 20 20 18 14 14 16 20 22 23 22 23 24 24 22 21 24 29 33 33 31 30 32 30 27 nan nan 29 30 33 33 33 34 35 35 34 nan 36 34 31 29 27 25 24 23 23 19 22 23 nan nan 20 18 16 21 25 29 30 30 33 35 34 33 32 32 32 32 30 26 24 24 24 23 22 22 22 22 22
14 18 16 15 16 14 15 17 20 20 19 16 17 20 22 21 21 21 21 21 21 20 19 22 26 30 32 32 32 33 31 27 25 27 28 29 34 35 35 35 34 34 36 39 35 32 30 30 29 28 26 24 22 22 nan nan nan 17 20 18 16 19 23 27 29 31 32 33 32 31 29 30 31 29 28 27 24 28 29 25 23 21 23 25 23
13 15 14 13 12 10 11 14 17 20 20 21 21 19 18 21 20 19 18 nan 16 17 18 19 25 29 31 33 34 28 28 27 26 24 25 26 29 32 35 34 33 33 nan nan nan nan 31 29 28 29 26 22 21 23 nan nan nan 22 20 19 18 20 25 24 29 30 31 32 31 27 28 30 29 27 27 25 27 29 29 24 23 25 25 23 23
12 13 12 11 10 9 9 11 13 17 18 21 22 16 nan nan 18 16 14 13 14 15 15 17 22 26 30 33 35 31 30 nan 31 29 30 29 29 30 33 32 31 nan nan nan nan 34 32 29 29 29 24 20 22 24 nan nan 22 19 16 17 17 22 24 24 25 33 31 31 29 28 27 28 27 25 25 24 26 29 27 22 21 22 25 22 23
11 10 9 10 9 9 9 11 13 15 17 nan nan nan nan nan nan 16 16 16 17 nan 18 14 18 21 25 30 nan nan nan 36 37 36 34 32 32 33 35 nan nan nan nan nan 36 37 34 32 31 27 25 22 23 27 nan 25 20 17 14 16 18 20 20 19 24 27 30 29 29 28 26 28 26 24 24 23 25 27 nan 21 18 19 25 21 23
11 10 8 9 9 10 11 13 15 16 16 nan nan nan nan nan nan 19 18 17 18 nan 19 17 17 21 25 nan nan nan nan nan nan 38 nan 37 34 33 34 34 32 30 28 27 32 36 38 35 32 29 27 27 27 26 27 27 27 18 17 17 19 20 17 16 18 24 30 29 31 29 26 28 27 25 22 23 25 nan nan nan nan 18 21 22 20
10 9 7 8 9 10 11 12 14 14 15 nan nan nan nan nan nan 22 20 18 17 nan nan 21 19 21 nan nan nan nan nan nan nan nan nan nan 39 nan nan nan nan nan nan 31 32 34 35 34 32 29 29 32 29 28 29 32 29 22 22 20 23 21 19 16 21 27 29 29 28 30 30 29 29 26 22 24 26 27 nan nan nan nan nan 19 21
10 9 7 8 9 9 9 11 13 14 14 nan nan nan nan nan nan 23 21 20 22 nan nan nan 24 23 nan nan nan nan nan nan nan nan nan nan nan nan nan nan nan nan 36 35 38 39 35 34 33 30 33 nan 30 33 nan 31 27 26 27 26 24 22 25 27 28 27 25 25 30 34 29 30 30 29 24 25 27 27 27 26 24 nan nan nan nan
11 12 10 10 9 9 9 10 11 14 nan nan nan nan nan nan 25 19 18 18 23 nan nan nan nan nan nan nan nan nan nan nan nan nan nan nan nan nan nan nan nan nan 37 36 39 38 35 36 37 34 nan nan 32 nan 32 29 29 32 32 26 22 24 27 27 27 28 28 27 29 31 30 28 30 26 26 28 29 29 28 nan nan nan nan nan nan
9 12 12 9 8 7 8 9 9 11 14 nan nan nan nan nan 23 18 19 19 21 nan nan nan nan nan nan nan nan nan nan nan nan nan nan nan nan nan nan nan 38 42 43 43 41 37 37 37 37 37 40 38 33 nan 33 30 32 32 29 22 16 23 28 29 27 26 24 26 26 28 31 28 24 24 29 29 27 27 27 26 nan nan nan nan nan
9 13 13 10 7 4 6 6 5 8 12 nan nan nan nan nan nan 22 21 18 16 18 nan nan nan nan nan nan nan nan nan nan nan nan nan nan nan nan nan 41 42 46 47 46 47 46 46 47 46 43 41 39 35 30 28 28 29 27 27 22 24 26 25 26 24 23 26 27 25 28 28 24 24 23 29 28 30 28 27 27 nan nan nan nan nan
9 11 11 9 7 4 2 3 1 5 9 14 nan nan nan nan nan nan 25 18 12 15 19 18 nan nan nan nan 35 32 30 31 36 37 nan 32 nan 38 40 40 42 44 46 47 48 46 46 48 46 42 39 37 34 31 27 24 24 25 23 25 31 30 28 27 30 33 28 26 25 26 24 23 22 20 25 26 25 25 26 26 nan nan nan nan nan
Wind_Direction
304 297 289 296 289 288 292 303 305 313 314 325 330 333 325 306 279 261 252 251 251 253 255 258 259 259 261 262 266 268 264 260 253 246 246 245 243 258 285 287 276 275 269 271 299 322 334 342 344 349 356 6 13 15 17 18 21 25 29 36 40 36 32 31 32 33 35 38 42 44 43 43 42 41 42 44 43 40 39 37 35 32 30 28 29
311 293 290 292 288 287 295 298 303 301 307 319 330 335 337 327 300 274 264 258 254 252 253 253 257 259 259 257 259 262 259 256 248 242 240 242 242 241 279 278 277 272 269 268 283 315 342 351 353 353 358 3 10 20 22 22 23 25 29 34 40 41 36 34 34 36 39 40 42 45 44 41 40 39 39 40 41 37 37 37 35 31 28 26 24
318 304 296 297 296 290 290 286 286 292 298 307 317 330 336 340 333 312 288 274 265 259 258 256 256 258 260 258 255 253 254 254 246 239 236 238 239 237 250 278 271 269 267 271 281 305 343 355 359 359 360 2 7 12 24 28 26 26 28 33 38 42 40 37 37 39 42 44 43 42 42 39 36 33 32 33 36 34 34 34 32 29 27 24 21
322 313 308 309 313 310 298 286 281 279 286 292 304 312 325 334 331 324 308 291 277 270 266 264 259 258 257 257 256 254 252 252 246 237 233 233 236 237 236 243 265 264 263 266 276 298 316 358 354 0 2 4 6 9 16 26 28 24 25 28 35 40 40 40 39 41 44 45 44 41 36 35 32 28 27 27 29 29 28 25 24 25 25 24 21
319 318 314 314 320 321 314 304 291 282 281 286 289 291 297 309 316 314 314 304 289 281 274 271 264 259 258 255 255 254 251 252 247 237 231 230 231 232 234 232 237 254 263 264 273 290 317 339 343 346 5 7 9 8 11 20 23 15 20 25 27 32 35 38 41 43 46 44 39 37 34 30 27 27 26 25 25 24 22 22 21 22 22 21 24
312 310 309 312 316 319 320 315 301 288 282 281 283 285 291 296 303 304 317 318 313 296 284 277 269 260 259 256 254 252 248 247 244 240 233 229 228 230 233 230 230 235 238 253 262 272 296 307 337 344 345 6 8 12 10 14 15 11 13 17 16 18 27 33 41 45 45 43 37 33 34 31 26 24 28 29 30 28 24 24 26 24 26 27 27
299 304 308 308 309 312 313 313 304 291 283 283 282 280 283 290 291 299 297 298 298 300 296 285 272 264 252 252 252 248 249 245 240 239 235 228 227 227 232 230 226 229 234 235 239 257 270 290 305 327 339 347 1 12 13 11 10 12 8 5 9 9 14 22 32 40 44 44 40 36 34 30 30 30 28 30 31 29 26 26 27 29 32 32 31
287 302 307 298 296 305 310 305 301 290 285 284 281 282 281 281 284 286 292 295 290 296 295 294 277 262 249 240 244 245 247 243 238 236 234 228 224 225 229 229 225 227 231 232 233 235 260 269 290 315 324 337 348 5 12 11 11 9 13 8 5 8 7 11 17 25 35 39 39 38 35 33 33 33 33 33 32 29 28 28 29 32 34 34 33
284 293 303 303 298 301 305 304 298 290 287 289 290 287 284 283 283 285 287 290 289 291 291 293 288 273 255 241 234 237 240 240 233 231 230 226 221 223 227 228 224 226 230 234 235 234 242 266 272 294 312 325 337 348 0 8 16 14 15 14 8 3 5 5 8 13 22 29 32 35 34 33 33 34 34 34 34 31 29 28 29 33 34 33 33
287 288 299 301 296 300 300 296 294 290 285 286 290 287 286 287 289 286 288 287 288 291 294 291 291 286 270 253 238 230 231 232 228 224 227 225 222 221 225 227 224 223 227 233 237 236 240 255 281 292 307 310 328 345 352 358 11 20 21 19 13 5 2 1 3 5 11 18 21 25 28 28 30 32 33 32 33 32 30 28 29 31 32 32 32
298 299 305 300 292 297 299 291 288 287 280 281 281 283 285 287 292 288 283 288 286 285 288 285 282 279 271 260 250 234 225 227 228 216 218 219 223 221 223 223 224 223 226 231 234 235 241 245 248 247 248 313 318 337 352 1 6 17 23 25 21 11 4 359 359 359 3 6 10 12 16 20 24 28 30 31 31 31 31 30 29 30 29 29 30
293 302 305 302 297 296 296 290 283 279 277 279 279 280 288 293 295 290 286 286 279 272 274 278 276 275 266 253 252 245 232 223 227 224 213 218 219 220 222 223 220 221 224 228 230 232 238 243 245 247 247 253 316 320 355 359 358 7 22 30 30 18 10 6 1 359 360 2 3 4 8 12 16 21 26 29 29 29 29 30 30 29 26 26 28
298 298 300 303 304 300 293 283 275 274 276 281 284 285 288 294 295 288 287 287 282 275 273 272 271 262 262 246 239 244 236 228 220 228 226 219 219 217 217 219 219 219 221 225 227 231 235 239 242 244 246 244 245 280 324 347 342 353 7 20 29 31 26 11 4 1 360 1 0 1 2 5 9 14 20 23 25 24 25 28 30 28 25 23 24
305 299 295 299 301 297 294 285 275 271 270 274 278 281 281 284 288 285 281 289 284 280 276 273 266 270 259 243 244 241 240 233 225 223 225 223 221 217 215 217 218 220 221 223 226 229 234 237 240 243 245 244 243 244 245 247 259 332 345 3 18 34 37 24 5 2 3 2 2 0 359 0 3 7 13 17 20 20 20 23 25 26 26 23 22
309 302 297 296 299 296 291 284 278 270 267 271 275 277 277 284 289 288 282 281 279 272 276 278 265 262 260 252 244 238 232 231 227 226 227 226 222 217 215 215 216 221 223 225 228 231 233 235 239 242 244 245 244 244 245 250 258 280 309 330 351 16 28 30 18 8 3 2 2 0 358 358 359 2 8 14 17 17 17 18 19 20 23 23 21
299 300 299 297 299 296 287 284 283 277 274 273 274 275 275 277 282 285 282 280 278 272 270 270 263 265 259 272 258 247 226 224 225 223 229 224 223 219 217 214 216 217 221 223 228 231 232 235 238 241 242 244 245 245 245 247 258 280 303 322 332 327 336 341 7 14 11 2 355 355 355 354 356 358 4 12 16 16 14 14 15 15 17 20 19
299 303 303 301 298 294 290 287 284 278 272 270 271 276 280 282 284 281 281 281 277 269 265 266 267 264 259 258 258 249 236 228 228 220 230 226 223 224 221 217 216 216 217 218 223 229 234 236 237 237 239 240 243 245 246 247 250 255 264 283 300 300 306 296 298 319 354 3 5 353 347 346 348 350 358 8 15 15 13 12 13 12 11 13 14
297 296 301 301 300 299 292 286 279 274 271 271 272 271 275 279 279 280 281 280 273 268 266 266 267 263 256 261 261 260 246 235 233 220 226 226 224 228 227 223 220 215 214 216 220 223 229 232 236 239 241 241 241 243 246 248 250 252 254 258 276 277 280 288 286 291 302 321 336 349 342 335 337 345 352 5 13 17 15 12 11 10 8 7 7
292 290 289 291 292 291 287 282 278 274 269 266 266 271 274 277 276 278 280 275 268 268 272 265 258 254 252 257 258 255 248 243 234 229 222 225 229 230 227 226 223 218 213 214 219 223 225 228 231 235 238 241 242 242 244 246 251 256 263 267 272 273 273 276 279 278 285 297 308 327 338 334 336 341 351 2 13 20 15 11 10 6 5 3 1
290 290 292 293 286 283 281 278 278 279 276 275 276 276 276 273 278 281 275 270 271 270 267 262 265 256 254 251 259 256 248 237 234 241 239 232 225 227 224 224 224 221 220 220 223 226 227 228 229 232 234 238 242 243 245 246 246 248 250 263 267 268 268 268 270 272 273 279 289 310 328 331 337 343 353 359 5 14 12 6 3 2 0 358 354
281 288 289 289 290 287 281 273 271 274 274 273 274 276 279 280 280 276 274 269 265 265 259 260 261 254 250 246 254 258 247 238 235 243 241 239 225 226 221 224 223 222 225 226 224 225 227 228 230 232 235 236 240 243 245 245 245 245 245 249 256 260 261 263 266 268 271 270 277 284 297 307 321 330 340 350 354 354 1 0 356 355 355 354 349
276 283 284 286 288 287 284 278 270 266 268 271 271 270 270 274 279 277 272 269 262 260 259 258 257 251 250 253 249 250 243 239 241 248 238 243 231 227 226 224 222 226 234 231 229 228 227 227 228 231 234 236 239 242 245 247 248 246 245 245 247 251 255 259 263 266 268 267 268 272 271 280 289 301 316 326 334 334 332 350 346 344 347 340 340
275 280 284 286 288 289 287 283 276 270 268 268 267 264 264 268 269 268 266 266 263 258 252 246 247 247 248 251 252 246 247 251 255 255 256 249 239 225 223 226 225 224 232 233 232 233 233 233 233 235 237 239 241 244 245 246 247 248 250 249 248 250 253 255 258 262 264 264 264 265 265 267 271 276 288 298 309 315 322 327 332 330 335 330 318
267 267 281 282 283 288 289 283 277 272 271 270 266 261 258 255 255 260 263 263 260 257 250 248 248 245 246 245 245 242 237 240 245 250 257 255 248 229 228 230 225 228 227 229 233 236 239 239 240 239 240 241 242 244 245 246 245 246 244 243 245 249 254 259 263 264 263 264 264 265 264 262 262 264 270 280 287 296 301 305 316 317 314 317 319
287 nan 287 288 284 285 286 282 276 275 273 268 260 257 253 251 252 251 253 256 263 265 258 253 252 249 247 244 240 236 227 231 236 239 243 247 249 233 226 234 225 225 228 231 230 238 241 241 242 242 242 243 242 243 244 246 245 246 248 243 246 247 249 254 261 266 268 268 266 262 259 257 258 259 261 268 275 281 287 293 300 303 303 308 318
281 284 282 281 279 281 278 270 264 262 267 268 266 265 259 255 256 257 254 257 257 258 254 253 250 244 242 242 240 238 231 229 230 233 236 242 246 243 229 228 229 224 229 232 233 234 236 241 242 242 243 244 243 243 243 244 243 244 248 246 245 248 248 250 255 260 263 261 259 255 250 251 255 255 254 259 266 273 279 283 288 295 299 302 306
283 285 283 278 276 272 267 266 268 264 263 266 268 264 259 254 252 256 255 250 252 253 251 253 251 245 240 240 238 234 229 230 231 229 232 234 241 248 244 229 226 230 226 229 230 236 234 236 241 241 242 241 243 244 245 244 244 246 246 246 244 246 248 249 251 256 260 262 258 256 257 257 256 254 252 253 258 265 272 277 282 287 290 291 293
287 285 285 286 283 280 279 281 275 270 266 269 267 265 264 263 263 261 255 248 253 258 256 257 254 247 239 235 233 231 231 230 229 228 230 229 231 240 247 241 234 224 232 227 229 225 236 234 232 237 239 241 241 243 244 244 242 242 243 243 244 244 246 250 253 254 255 256 257 256 251 243 240 244 251 254 257 263 269 276 280 283 285 285 286
286 282 280 279 279 277 273 271 270 268 267 266 265 263 263 263 266 265 265 259 253 257 258 256 254 249 240 236 232 229 232 232 227 227 228 226 226 234 245 245 241 231 229 232 230 231 234 240 234 232 240 240 239 240 241 242 241 240 240 241 242 243 245 250 255 259 262 264 259 256 255 255 253 248 246 252 260 263 267 272 278 282 284 285 286
284 279 275 273 272 272 270 265 262 261 261 260 259 261 262 263 268 268 267 267 263 257 254 253 254 250 243 236 nan nan 229 230 229 229 229 226 223 229 239 240 241 236 228 229 227 239 235 235 239 234 236 239 240 239 243 242 242 240 239 240 241 242 245 251 255 258 259 262 262 261 259 257 256 258 257 257 261 266 268 270 274 278 281 284 285
275 273 271 268 265 266 270 267 263 261 260 260 259 258 260 261 264 265 265 266 264 260 253 250 250 249 243 236 nan nan nan 228 227 227 226 223 219 223 231 237 235 241 235 227 224 233 243 240 238 239 239 240 241 239 239 240 241 245 243 242 241 241 247 248 255 259 260 260 259 258 256 253 252 254 260 265 267 268 269 269 271 272 275 279 282
270 268 267 264 261 258 261 267 267 260 257 257 259 260 260 261 261 260 260 265 264 257 245 243 247 250 244 235 nan nan nan nan 225 227 226 221 218 218 225 231 230 232 233 228 226 222 239 242 242 242 246 244 242 241 238 237 239 246 245 244 243 242 242 245 254 259 261 264 263 259 256 252 253 257 261 263 264 267 269 269 268 269 271 274 277
268 264 262 260 257 256 256 258 259 253 249 252 258 260 259 259 259 258 258 263 263 254 242 238 245 252 246 236 nan nan nan nan nan nan nan nan nan 218 222 230 231 235 237 230 227 223 231 242 243 245 245 249 244 245 240 239 237 239 243 244 244 245 246 249 250 251 251 250 249 248 248 249 250 252 258 265 267 266 264 263 262 262 265 271 275
273 270 265 261 259 256 257 261 263 260 255 254 257 258 256 257 257 256 258 265 269 264 248 240 245 245 244 237 nan nan nan nan nan nan nan nan nan nan 225 233 236 241 241 237 225 230 225 236 236 239 242 248 244 245 246 242 237 237 238 240 243 246 248 252 254 254 257 253 251 252 254 257 261 267 271 271 268 267 267 267 269 270 270 273 278
275 275 269 265 263 262 264 265 265 261 258 258 256 255 256 257 257 257 258 260 267 267 255 239 237 241 240 235 228 228 nan nan nan nan nan nan nan nan nan 234 239 241 241 238 233 229 231 231 237 237 242 241 243 240 241 241 241 241 238 238 241 243 247 251 253 253 258 261 260 261 261 262 264 265 264 264 266 268 269 269 270 272 272 273 276
276 273 270 263 263 268 265 261 261 261 258 259 256 257 259 262 261 258 258 266 266 263 253 242 237 238 239 235 231 229 228 219 nan nan nan nan nan nan nan nan 237 240 237 236 233 231 230 230 228 235 239 239 231 232 236 238 241 240 243 240 241 243 244 248 251 251 255 262 263 262 258 255 256 259 262 266 269 273 273 271 271 272 273 274 275
283 276 267 262 260 261 260 257 260 263 264 253 247 253 256 257 256 257 262 264 264 260 249 236 234 236 237 239 238 237 234 228 224 nan nan nan nan nan nan nan 235 237 235 234 238 236 230 226 224 231 240 236 233 232 238 240 240 242 242 244 245 246 246 247 249 251 253 256 256 256 254 254 253 256 261 265 268 269 269 269 269 271 273 274 273
291 287 268 260 262 258 257 250 255 258 262 261 259 257 257 255 252 252 255 258 258 256 245 231 229 233 235 240 241 241 241 240 235 233 235 237 237 235 233 234 235 235 234 233 235 235 231 224 230 227 241 239 231 232 242 252 248 240 236 237 242 246 246 243 248 252 252 252 250 250 253 255 254 258 263 266 268 269 270 270 271 271 271 269 271
293 301 282 260 257 254 250 247 241 249 250 252 253 258 259 259 257 254 255 255 250 246 240 230 230 233 235 239 242 239 nan nan nan nan 243 242 241 241 241 240 238 235 234 232 232 232 232 229 229 235 234 240 243 231 250 260 257 258 246 237 238 244 245 247 243 247 250 251 250 254 255 257 259 256 258 265 269 272 273 273 272 272 271 272 274
298 314 302 265 253 252 247 243 238 246 259 261 264 267 261 258 258 260 259 255 247 243 235 228 228 233 234 235 237 238 240 246 nan nan 252 247 244 245 242 239 235 233 233 nan 230 231 235 233 232 234 242 239 240 245 248 253 nan nan 255 257 254 252 249 248 251 249 248 251 250 250 253 257 256 252 251 249 259 267 270 267 270 270 270 269 270
305 314 306 275 252 246 245 242 239 241 248 257 269 265 258 255 259 259 257 250 240 235 235 232 231 233 232 231 232 236 239 246 258 259 258 251 246 246 244 241 237 235 233 233 230 232 235 236 232 236 239 241 242 244 nan nan nan 258 255 264 262 259 255 249 247 252 252 252 250 250 251 256 255 256 257 257 253 257 257 264 264 273 271 270 272
306 307 300 275 258 252 245 242 243 241 246 256 253 244 255 263 261 258 252 nan 240 236 237 237 234 232 229 229 231 240 245 250 257 266 267 265 259 252 248 244 242 237 nan nan nan nan 234 235 236 242 244 239 241 252 nan nan nan 249 251 261 265 262 261 253 241 245 253 255 253 249 247 250 255 255 254 251 249 255 258 257 259 263 267 274 277
309 303 292 269 259 259 256 251 247 249 249 248 233 234 nan nan 237 246 245 245 247 236 240 248 242 235 229 228 230 236 241 nan 249 259 261 263 260 257 255 255 249 nan nan nan nan 237 236 237 239 242 243 237 241 251 nan nan 248 254 259 267 271 265 265 256 243 238 248 258 253 248 245 249 253 255 254 251 252 254 254 257 258 264 268 272 273
319 308 287 277 273 273 269 257 250 249 246 nan nan nan nan nan nan 233 240 244 246 nan 237 247 250 242 235 231 nan nan nan 244 243 247 254 258 257 255 257 nan nan nan nan nan 245 240 240 240 241 242 242 242 242 251 nan 247 243 250 261 270 274 271 260 249 241 243 245 257 254 251 246 248 254 253 251 249 250 252 nan 256 260 268 274 275 274
326 316 296 278 277 279 275 259 249 248 250 nan nan nan nan nan nan 213 230 233 238 nan 242 243 254 250 243 nan nan nan nan nan nan 238 nan 244 248 253 254 255 253 254 254 251 248 246 245 243 241 239 243 245 247 247 251 248 248 255 263 271 270 264 254 242 237 243 239 251 252 251 249 249 255 253 252 248 249 nan nan nan nan 270 275 277 273
321 315 300 277 277 278 274 265 255 253 254 nan nan nan nan nan nan 212 230 236 240 nan nan 241 248 257 nan nan nan nan nan nan nan nan nan nan 240 nan nan nan nan nan nan 242 240 243 244 243 244 242 241 247 248 246 246 247 252 259 269 275 270 260 249 240 241 242 235 247 253 250 245 248 253 253 251 246 249 247 nan nan nan nan nan 273 278
321 326 316 279 279 284 281 268 259 252 255 nan nan nan nan nan nan 214 224 239 251 nan nan nan 246 252 nan nan nan nan nan nan nan nan nan nan nan nan nan nan nan nan 239 236 236 238 237 235 239 241 241 nan 246 245 nan 247 252 259 267 270 273 263 246 238 240 243 246 245 245 246 246 243 249 250 247 250 250 248 246 253 266 nan nan nan nan
328 334 324 293 283 284 285 269 257 250 nan nan nan nan nan nan 198 221 223 236 254 nan nan nan nan nan nan nan nan nan nan nan nan nan nan nan nan nan nan nan nan nan 238 236 239 238 235 235 236 237 nan nan 247 nan 246 245 249 252 252 247 254 259 255 246 241 236 239 241 246 251 245 242 245 246 244 243 248 248 242 nan nan nan nan nan nan
337 337 330 309 288 287 284 272 256 246 236 nan nan nan nan nan 207 215 220 233 250 nan nan nan nan nan nan nan nan nan nan nan nan nan nan nan nan nan nan nan 244 244 240 235 235 235 234 236 238 238 239 242 243 nan 241 238 245 251 250 251 251 257 252 243 235 235 235 243 244 250 246 241 246 251 243 244 248 248 245 243 nan nan nan nan nan
356 342 330 316 294 285 284 278 260 242 231 nan nan nan nan nan nan 201 207 219 227 224 nan nan nan nan nan nan nan nan nan nan nan nan nan nan nan nan nan 239 242 240 237 233 226 223 224 228 232 235 235 238 243 246 245 246 251 251 254 250 246 254 246 239 243 244 240 241 247 253 246 242 236 238 241 237 240 240 245 246 nan nan nan nan nan
357 346 326 320 306 284 290 309 238 238 235 224 nan nan nan nan nan nan 210 217 203 202 212 206 nan nan nan nan 239 234 229 226 229 228 nan 224 nan 227 231 231 230 230 226 224 223 223 222 225 229 231 229 234 238 241 243 248 253 254 251 246 241 241 241 245 252 253 248 241 247 255 247 234 243 237 244 240 238 238 241 249 nan nan nan nan nan